Tracking 32136 objects as of 12-Nov-2025
HD Live streaming from Space Station
objects crossing your sky now

POLAR SCOUT YUKON

Track POLAR SCOUT YUKON now!
10-day predictions


NORAD ID: 43808
Int'l Code: 2018-099BC
Perigee: 484.9 km
Apogee: 493.4 km
Inclination: 97.5 °
Period: 94.2 minutes
Semi major axis: 6860 km
RCS: Unknown
Launch date: December 3, 2018
Source: United States (US)
Launch site: AIR FORCE WESTERN TEST RANGE (AFWTR)
Your satellite tracking list
Your tracking list is empty




NASA's NSSDC Master Catalog

Two Line Element Set (TLE):
1 43808U 18099BC  25315.14800801  .00024140  00000-0  88605-3 0  9999
2 43808  97.4953  20.4173 0006259  33.9536 326.2103 15.27928363380105
Source of the keplerian elements: AFSPC